WX2DX-2 Weather Reports


Display with metric or nautical units.
time (UTC)temp
F
wind
direction
speed
MPH
gust
MPH
rain 1hr
in
rain 24hr
in
rain mn
in
humidity
%
barometer
mb
20260507191511 58 267 12.0 23.0 0.00 0.00 0.00 41 1008.5
20260507190013 60 243 4.0 12.0 0.00 0.00 0.00 44 1008.6
20260507184508 58 325 1.0 11.0 0.00 0.00 0.00 48 1008.8
20260507183007 58 225 6.0 13.0 0.00 0.00 0.00 46 1008.9
20260507181506 58 333 4.0 9.0 0.00 0.00 0.00 47 1008.9
20260507180005 59 290 5.0 17.0 0.00 0.00 0.00 44 1009.0
20260507174503 57 281 6.0 14.0 0.00 0.01 0.00 45 1009.3
20260507173118 58 300 3.0 9.0 0.00 0.01 0.00 46 1009.5
20260507171558 57 296 3.0 11.0 0.00 0.01 0.00 45 1009.7
20260507170059 59 277 4.0 9.0 0.00 0.01 0.00 52 1009.8
20260507164628 57 290 2.0 10.0 0.00 0.02 0.00 50 1010.0
20260507163056 59 271 2.0 13.0 0.00 0.02 0.00 57 1010.2
20260507161557 58 269 5.0 11.0 0.00 0.02 0.00 47 1010.3
20260507160049 58 211 2.0 14.0 0.00 0.02 0.00 51 1010.5
20260507154546 57 308 3.0 8.0 0.00 0.03 0.00 46 1010.6
20260507153044 56 62 3.0 14.0 0.00 0.03 0.00 45 1010.8
20260507151543 57 225 5.0 10.0 0.00 0.03 0.00 47 1010.9
20260507150041 55 350 3.0 9.0 0.00 0.03 0.00 46 1011.2
20260507144537 55 232 2.0 8.0 0.00 0.03 0.00 55 1011.5
20260507143034 55 342 3.0 8.0 0.00 0.03 0.00 50 1011.7
20260507141529 53 242 2.0 9.0 0.00 0.03 0.00 51 1011.9
20260507140023 51 194 5.0 10.0 0.00 0.03 0.00 54 1012.0
20260507134519 51 260 3.0 6.0 0.00 0.06 0.00 53 1012.1
20260507133014 52 188 1.0 4.0 0.00 0.06 0.00 57 1012.0
20260507131517 50 227 1.0 4.0 0.00 0.06 0.00 57 1012.2
20260507130005 49 271 3.0 7.0 0.00 0.06 0.00 60 1012.4
20260507124606 49 258 1.0 4.0 0.00 0.09 0.00 59 1012.5
20260507123058 49 309 1.0 6.0 0.00 0.09 0.00 63 1012.5
20260507121555 48 338 1.0 4.0 0.00 0.09 0.00 64 1012.4
20260507120052 47 331 1.0 5.0 0.00 0.09 0.00 67 1012.3
20260507114603 46 269 0.0 4.0 0.00 0.17 0.00 68 1012.1
20260507113102 43 315 1.0 3.0 0.00 0.17 0.00 78 1012.0
20260507111541 39 291 1.0 2.0 0.00 0.17 0.00 86 1012.1
20260507110032 36 317 0.0 0.0 0.00 0.17 0.00 91 1011.9
20260507104538 34 317 0.0 1.0 0.00 0.20 0.00 90 1011.7
20260507103026 34 317 0.0 0.0 0.00 0.20 0.00 89 1011.6
20260507101524 34 317 0.0 0.0 0.00 0.20 0.00 88 1011.7
20260507100019 35 313 0.0 0.0 0.00 0.20 0.00 87 1011.5
20260507094518 35 313 0.0 0.0 0.00 0.20 0.00 87 1011.4
20260507093016 36 313 0.0 2.0 0.00 0.20 0.00 85 1011.3
20260507091512 37 327 0.0 2.0 0.00 0.20 0.00 83 1011.3
20260507090009 38 327 0.0 1.0 0.00 0.20 0.00 81 1011.3
20260507084507 39 327 0.0 2.0 0.00 0.20 0.00 78 1011.2
20260507083001 40 327 0.0 1.0 0.00 0.20 0.00 74 1011.2
20260507081601 42 327 0.0 0.0 0.00 0.20 0.00 71 1011.2
20260507080053 43 327 0.0 1.0 0.00 0.20 0.00 68 1011.2
20260507074557 44 327 0.0 3.0 0.00 0.20 0.00 64 1011.2
20260507073052 45 286 0.0 3.0 0.00 0.20 0.00 64 1011.2
20260507071547 45 292 0.0 8.0 0.00 0.20 0.00 64 1011.2
20260507070046 45 281 0.0 4.0 0.00 0.20 0.00 65 1011.0
20260507064550 45 285 1.0 8.0 0.00 0.20 0.00 65 1011.0
20260507063045 45 271 0.0 4.0 0.00 0.20 0.00 64 1011.2
20260507061543 46 234 0.0 4.0 0.00 0.20 0.00 64 1011.3
20260507060050 46 248 2.0 7.0 0.00 0.20 0.00 63 1011.6
20260507054539 46 278 1.0 3.0 0.00 0.20 0.00 65 1011.5
20260507053038 46 309 1.0 4.0 0.00 0.20 0.00 64 1011.4
20260507051535 46 289 0.0 1.0 0.00 0.20 0.00 64 1011.6
20260507050033 47 334 1.0 9.0 0.00 0.20 0.00 63 1011.5
20260507044533 47 302 2.0 7.0 0.00 0.20 0.00 61 1011.5
20260507043030 47 309 1.0 4.0 0.00 0.20 0.00 59 1011.3
20260507041526 47 296 1.0 3.0 0.00 0.20 0.00 60 1011.4
20260507040023 48 305 1.0 3.0 0.00 0.20 0.00 58 1010.9
20260507034531 48 331 5.0 12.0 0.00 0.20 0.20 56 1011.3
20260507033021 48 333 1.0 3.0 0.00 0.20 0.20 59 1011.2
20260507031519 48 269 0.0 10.0 0.00 0.20 0.20 60 1011.0
20260507030016 49 329 3.0 8.0 0.00 0.20 0.20 64 1010.8
20260507024518 49 289 1.0 5.0 0.00 0.20 0.20 70 1010.7
20260507023011 49 350 3.0 8.0 0.00 0.20 0.20 69 1010.6
20260507021510 50 274 4.0 12.0 0.00 0.20 0.20 72 1010.4
20260507020041 50 343 1.0 8.0 0.00 0.20 0.20 81 1010.3
20260507014520 50 284 1.0 4.0 0.00 0.20 0.20 80 1010.5
20260507013023 51 225 1.0 8.0 0.00 0.20 0.20 81 1010.5
20260507011530 51 263 1.0 3.0 0.00 0.20 0.20 84 1010.6
20260507010017 51 340 0.0 1.0 0.00 0.20 0.20 83 1010.5
20260507004516 51 325 1.0 3.0 0.00 0.20 0.20 84 1010.4
20260507003014 51 313 0.0 2.0 0.00 0.20 0.20 84 1010.3
20260507001536 51 304 0.0 2.0 0.00 0.20 0.20 83 1009.8
20260507000014 52 304 0.0 2.0 0.00 0.20 0.20 81 1009.7
20260506234508 52 291 2.0 8.0 0.00 0.20 0.20 81 1009.3
20260506233007 52 320 2.0 5.0 0.00 0.20 0.20 80 1009.0
20260506231505 52 277 1.0 8.0 0.00 0.20 0.20 81 1008.8
20260506230004 52 250 1.0 5.0 0.00 0.20 0.20 81 1008.7
20260506224503 52 331 2.0 6.0 0.00 0.20 0.20 81 1009.0
20260506223104 53 333 3.0 6.0 0.00 0.20 0.20 82 1008.8
20260506221610 54 321 3.0 9.0 0.00 0.20 0.20 82 1008.2
20260506220054 54 316 2.0 10.0 0.00 0.20 0.20 81 1008.1
20260506214554 55 295 1.0 8.0 0.00 0.20 0.20 82 1008.0
20260506213049 55 283 4.0 10.0 0.00 0.20 0.20 81 1007.7
20260506211546 55 272 3.0 8.0 0.00 0.20 0.20 83 1007.5
20260506210053 56 287 4.0 9.0 0.00 0.20 0.20 82 1007.0
20260506204546 56 234 6.0 11.0 0.00 0.21 0.20 81 1006.9
20260506203042 56 290 4.0 16.0 0.00 0.21 0.20 82 1006.8
20260506201539 57 258 4.0 15.0 0.00 0.21 0.20 84 1006.7
20260506200038 57 229 5.0 13.0 0.00 0.21 0.20 85 1006.6
20260506194536 57 213 5.0 12.0 0.00 0.21 0.20 87 1006.3
20260506193041 56 250 5.0 12.0 0.00 0.21 0.20 87 1006.2